AEE4ED LGAV-EDDH

Flight info

Callsign AEE4ED
Flight time N/A
Altitude 36000
Route KRO T162 NEVRA UT162 KOROS UN133 PEREN UL863 EVIVI L863 OKANA DCT NEPOS DCT TONDO DCT TEKNO DCT BEGLA DCT LOKVU DCT LALUK DCT SOGMA M748 RARUP RARUP3D
Aircraft A20N/M-SDE2E3FGHIRWXY/LB1

Departure

Time N/A
Airport Athens Eleftherios Venizelos International Airport (LGAV)

Arrival

Time 2026-05-01 08:09
Airport Hamburg Helmut Schmidt Airport (EDDH)
Time Latitude Longitude Altitude Speed Heading
2026-05-01 07:23 50.84094 13.84242 38464 ft 363 kts 324°
2026-05-01 07:24 50.90435 13.77720 38465 ft 364 kts 324°
2026-05-01 07:24 50.94671 13.73354 38464 ft 364 kts 323°
2026-05-01 07:25 50.98879 13.69001 38464 ft 365 kts 323°
2026-05-01 07:25 51.03130 13.64591 38464 ft 365 kts 322°
2026-05-01 07:26 51.07371 13.60177 38464 ft 366 kts 322°
2026-05-01 07:26 51.11593 13.55769 38467 ft 366 kts 322°
2026-05-01 07:27 51.15824 13.51347 38465 ft 366 kts 322°
2026-05-01 07:27 51.20055 13.46915 38465 ft 366 kts 322°
2026-05-01 07:28 51.24284 13.42476 38465 ft 366 kts 322°
2026-05-01 07:28 51.28542 13.37998 38465 ft 366 kts 322°
2026-05-01 07:29 51.32760 13.33549 38467 ft 366 kts 322°
2026-05-01 07:29 51.36993 13.29076 38465 ft 365 kts 322°
2026-05-01 07:30 51.41235 13.24586 38465 ft 365 kts 322°
2026-05-01 07:30 51.45450 13.20111 38465 ft 365 kts 322°
2026-05-01 07:31 51.49678 13.15621 38464 ft 366 kts 321°
2026-05-01 07:32 51.60270 13.04317 38463 ft 368 kts 320°
2026-05-01 07:33 51.66656 12.97466 38461 ft 369 kts 319°
2026-05-01 07:33 51.73057 12.90569 38463 ft 370 kts 319°
2026-05-01 07:34 51.79462 12.83644 38460 ft 370 kts 319°
2026-05-01 07:35 51.83730 12.79019 38458 ft 370 kts 319°
2026-05-01 07:35 51.87987 12.74397 38458 ft 371 kts 319°
2026-05-01 07:36 51.92273 12.69731 38461 ft 370 kts 319°
2026-05-01 07:36 51.96507 12.65111 38463 ft 370 kts 319°
2026-05-01 07:37 52.02919 12.58096 38464 ft 371 kts 319°
2026-05-01 07:37 52.07165 12.53435 38464 ft 371 kts 319°
2026-05-01 07:38 52.11440 12.48734 38465 ft 370 kts 319°
2026-05-01 07:39 52.17810 12.41708 38465 ft 371 kts 319°
2026-05-01 07:39 52.24151 12.34688 38466 ft 371 kts 318°
2026-05-01 07:40 52.28321 12.30058 38465 ft 370 kts 319°
2026-05-01 07:40 52.32346 12.25579 38465 ft 370 kts 319°
2026-05-01 07:41 52.36580 12.20858 38465 ft 370 kts 319°
2026-05-01 07:42 52.42936 12.13750 38465 ft 370 kts 319°
2026-05-01 07:42 52.47186 12.08981 38465 ft 370 kts 319°
2026-05-01 07:43 52.51393 12.04252 38465 ft 370 kts 319°
2026-05-01 07:43 52.57768 11.97062 38266 ft 370 kts 319°
2026-05-01 07:44 52.61962 11.92320 37683 ft 365 kts 319°
2026-05-01 07:44 52.65998 11.87428 36643 ft 358 kts 316°
2026-05-01 07:45 52.67970 11.84938 35963 ft 359 kts 316°
2026-05-01 07:45 52.69952 11.82428 35249 ft 360 kts 316°
2026-05-01 07:45 52.71917 11.79937 34524 ft 361 kts 316°
2026-05-01 07:45 52.73900 11.77421 33772 ft 362 kts 316°
2026-05-01 07:46 52.75890 11.74900 33004 ft 364 kts 315°
2026-05-01 07:46 52.77880 11.72375 32235 ft 367 kts 315°
2026-05-01 07:46 52.81958 11.67187 30645 ft 374 kts 314°
2026-05-01 07:47 52.84014 11.64563 29971 ft 374 kts 314°
2026-05-01 07:47 52.86026 11.61999 29490 ft 370 kts 314°
2026-05-01 07:47 52.88060 11.59401 29013 ft 366 kts 314°
2026-05-01 07:47 52.90066 11.56834 28549 ft 363 kts 314°
2026-05-01 07:48 52.93533 11.51130 27592 ft 341 kts 295°
2026-05-01 07:48 52.94669 11.47724 27148 ft 338 kts 291°
2026-05-01 07:48 52.95685 11.44073 26687 ft 363 kts 288°
2026-05-01 07:49 52.96650 11.40121 26178 ft 373 kts 287°
2026-05-01 07:49 52.98542 11.32297 25192 ft 366 kts 287°
2026-05-01 07:49 52.99480 11.28467 24719 ft 363 kts 287°
2026-05-01 07:50 53.00382 11.24796 24272 ft 360 kts 287°
2026-05-01 07:50 53.02255 11.17150 23378 ft 354 kts 287°
2026-05-01 07:50 53.03167 11.13409 22921 ft 352 kts 287°
2026-05-01 07:51 53.04084 11.09640 22391 ft 351 kts 287°
2026-05-01 07:51 53.04988 11.05923 21839 ft 351 kts 287°
2026-05-01 07:51 53.05911 11.02118 21264 ft 352 kts 287°
2026-05-01 07:52 53.07729 10.94607 20169 ft 351 kts 287°
2026-05-01 07:52 53.08638 10.90850 19631 ft 351 kts 287°
2026-05-01 07:52 53.09554 10.87056 19087 ft 350 kts 287°
2026-05-01 07:53 53.11351 10.79595 18017 ft 349 kts 287°
2026-05-01 07:53 53.12250 10.75852 17473 ft 348 kts 287°
2026-05-01 07:53 53.13141 10.72135 16935 ft 348 kts 287°
2026-05-01 07:53 53.14029 10.68419 16402 ft 347 kts 288°
2026-05-01 07:54 53.15809 10.60954 15342 ft 345 kts 288°
2026-05-01 07:55 53.18437 10.49892 13775 ft 342 kts 288°
2026-05-01 07:55 53.20164 10.42590 12755 ft 339 kts 288°
2026-05-01 07:56 53.22713 10.31770 11272 ft 335 kts 288°
2026-05-01 07:56 53.24377 10.24688 10807 ft 314 kts 288°
2026-05-01 07:57 53.25155 10.21376 10662 ft 302 kts 288°
2026-05-01 07:57 53.26626 10.15093 10291 ft 282 kts 288°
2026-05-01 07:58 53.28030 10.09047 9582 ft 276 kts 289°
2026-05-01 07:58 53.29387 10.03197 9003 ft 267 kts 289°
2026-05-01 07:59 53.30721 9.97436 8437 ft 266 kts 290°
2026-05-01 07:59 53.32050 9.91683 7871 ft 264 kts 290°
2026-05-01 08:00 53.34635 9.80454 6761 ft 251 kts 291°
2026-05-01 08:01 53.36457 9.72523 5974 ft 237 kts 294°
2026-05-01 08:01 53.37379 9.70295 5707 ft 234 kts 319°
2026-05-01 08:01 53.38786 9.68970 5453 ft 232 kts 343°
2026-05-01 08:02 53.41963 9.68613 4964 ft 226 kts 358°
2026-05-01 08:02 53.43500 9.68602 4770 ft 220 kts 358°
2026-05-01 08:03 53.46460 9.68540 4415 ft 207 kts 359°
2026-05-01 08:03 53.47831 9.69061 4260 ft 203 kts 28°
2026-05-01 08:03 53.49916 9.72264 3731 ft 205 kts 47°
2026-05-01 08:04 53.51772 9.75951 3148 ft 206 kts 49°
2026-05-01 08:04 53.53536 9.79556 2681 ft 195 kts 49°
2026-05-01 08:05 53.55227 9.82998 2127 ft 187 kts 49°
2026-05-01 08:05 53.56047 9.84663 1866 ft 179 kts 49°
2026-05-01 08:05 53.56815 9.86221 1623 ft 168 kts 49°
2026-05-01 08:06 53.58209 9.89049 1236 ft 144 kts 50°
2026-05-01 08:06 53.59425 9.91513 866 ft 135 kts 50°
2026-05-01 08:07 53.60618 9.93928 511 ft 134 kts 50°
2026-05-01 08:07 53.61812 9.96339 149 ft 134 kts 51°
2026-05-01 08:08 53.62392 9.97510 63 ft 120 kts 51°
2026-05-01 08:08 53.63108 9.98970 61 ft 55 kts 50°
2026-05-01 08:09 53.63292 9.99528 61 ft 18 kts 92°
2026-05-01 08:09 53.63279 9.99671 61 ft 2 kts 101°
2026-05-01 08:09 53.63278 9.99672 61 ft 0 kts 101°
2026-05-01 08:10 53.63317 9.99836 61 ft 13 kts 50°
2026-05-01 08:11 53.63432 10.00095 61 ft 14 kts 84°
2026-05-01 08:11 53.63264 10.00174 61 ft 13 kts 177°
2026-05-01 08:12 53.63192 10.00264 61 ft 6 kts 86°
2026-05-01 08:12 53.63195 10.00343 61 ft 6 kts 86°
2026-05-01 08:12 53.63196 10.00390 61 ft 0 kts 86°